Skip Page Navigation
NASA JPL Caltech
NASA Logo - Jet Propulsion Laboratory + View the NASA Portal
+ Center for Near-Earth Object Studies
JPL Home Earth Solar System Stars & Galaxies Technology
JPL Solar System Dynamics
BODIES ORBITS EPHEMERIDES TOOLS PHYSICAL DATA DISCOVERY FAQ SITE MAP
IMPORTANT: The SSD Announcement email list is now available. Major changes are coming in the near future, including possible hostname and/or URL changes. To be notified of such changes, subscribe to this email list.

Please visit this page for more details.


JPL Small-Body Database Browser
Search: [ help ]  
48024 (2001 DJ17)
Classification: Main-belt Asteroid          SPK-ID: 2048024
Ephemeris | Orbit Diagram | Orbital Elements | Mission Design | Physical Parameters | Discovery Circumstances ]

[ show orbit diagram ]
Orbital Elements at Epoch 2458600.5 (2019-Apr-27.0) TDB
Reference: JPL 18 (heliocentric ecliptic J2000)
 Element Value Uncertainty (1-sigma)   Units 
e .09852264479408891 3.6796e-08  
a 2.417442540690322 1.2299e-08 au
q 2.17926970794377 8.8917e-08 au
i 7.600189022426873 4.1741e-06 deg
node 83.22975472852329 3.2773e-05 deg
peri 174.7040452840477 4.161e-05 deg
M 211.9897458915178 2.8298e-05 deg
tp 2459164.945442509528
(2020-Nov-11.44544251)
0.00010946 TDB
period 1372.880281351973
3.76
1.0477e-05
2.868e-08
d
yr
n .262222427468681 2.0012e-09 deg/d
Q 2.655615373436874 1.3511e-08 au
  Orbit Determination Parameters
   # obs. used (total)      956  
   data-arc span      12059 days (33.02 yr)  
   first obs. used      1986-03-04  
   last obs. used      2019-03-10  
   planetary ephem.      DE431  
   SB-pert. ephem.      SB431-N16  
   condition code      0  
   norm. resid. RMS      .5835  
   source      ORB  
   producer      Otto Matic  
   solution date      2019-Jul-13 02:44:44  

Additional Information
 Earth MOID = 1.16382 au 
 Jupiter MOID = 2.38628 au 
 T_jup = 3.497 
[ show covariance matrix ]

Ephemeris | Orbit Diagram | Orbital Elements | Mission Design | Physical Parameters | Discovery Circumstances ]

Physical Parameter Table
Parameter Symbol Value Units Sigma Reference Notes
absolute magnitude H 15.2   n/a MPO432037  

48024 (2001 DJ17)          Discovered 2001-Feb-16 by LINEAR at Socorro
Reference: 20020921/Numbers.arcLast Updated: 2004-04-19
Ephemeris | Orbit Diagram | Orbital Elements | Mission Design | Physical Parameters | Discovery Circumstances ]
ABOUT SSD CREDITS/AWARDS PRIVACY/COPYRIGHT GLOSSARY LINKS
FirstGov
(server date/time)  
NASA Home Page
Site Manager:   Ryan S. Park
Webmaster  Alan B. Chamberlin